SCP
0 0 0 0 0 0 0 0 0 0 0 -0 -0 -0 0 0 0 -0 0 0 0 0 0 0 0 0 0 0 0 0 0 0 0 0 0 0 0 0 0 0 0 0 0 0 0 0 0 0 -0 0 0 0 0 0
0 0 0 0 0 0 0 0 0 0 0 0 -0 0 0 0 0 0 0 0 0 0 0 0 0 0 0 0 0 0 0 0 0 0 0 0 0 0 0 0 0 0 -0 -0 0 0 0 0 0 0 0 0 0 0
0 0 0 0 0 0 0 0 0 0 0 -0 -0 -0 0 0 0 0 0 0 0 0 0 0 0 0 0 0 0 0 0 0 0 0 0 0 0 0 0 0 -0 0 -0 -0 -0 0 0 -0 0 -0 0 0 0 0
-0 -0 -0 -0 0 0 0 0 0 0 0 0 -0 0 0 0 0 0 0 0 0 0 0 0 0 0 0 0 0 0 0 0 0 0 0 0 0 0 0 0 0 -0 -0 0 -0 -0 0 0 0 0 0 0 0 0
-0 -0 0 -0 0 0 0 0 0 0 0 0 0 0 0 0 0 0 0 0 0 0 0 0 0 0 0 0 0 0 0 0 0 0 0 0 0 0 0 0 0 0 -0 0 -0 0 0 0 0 0 0 0 0 0
-0 -0 -0 -0 0 0 0 0 0 0 0 0 0 0 0 0 0 0 0 0 0 0 0 0 0 0 0 0 0 0 0 -0 0 0 0 0 0 0 0 0 0 0 -0 -0 0 0 0 0 0 0 0 0 0 0
-0 -0 -0 -0 -0 0 0 0 0 0 0 0 0 0 0 0 0 0 0 0 0 0 0 0 0 0 0 0 0 0 0 -0 0 0 0 0 0 0 -0 0 -0 -0 -0 -0 -0 -0 0 0 0 0 0 0 0 0
-0 -0 -0 0 -0 0 0 0 0 0 0 0 0 0 0 0 0 0 0 0 0 0 0 0 0 0 0 0 0 0 0 0 0 0 0 0 0 0 0 -0 0 0 0 0 -0 -0 -0 0 0 0 0 0 0 0
-0 -0 -0 0 -0 -0 0 0 0 0 0 0 0 0 0 0 0 0 0 0 0 0 0 0 0 0 0 0 0 0 0 0 0 0 0 0 0 0 0 -0 -0 0 0 0 0 0 -0 -0 -0 0 0 0 0 0
0 -0 -0 0 -0 -0 0 0 0 0 0 0 0 0 0 0 0 0 0 0 0 0 0 0 0 0 0 0 0 0 0 0 0 0 0 0 0 0 0 0 -0 -0 -0 0 0 0 -0 -0 -0 -0 0 0 0 0
-0 -0 0 0 0 0 0 0 0 0 0 0 0 0 0 0 0 0 0 0 0 0 0 0 0 0 0 0 0 0 0 0 0 0 0 0 0 0 0 0 0 -0 -0 -0 -0 0 0 0 0 0 -0 0 0 0
-0 -0 0 -0 0 0 0 0 0 0 0 0 0 0 0 0 0 0 0 0 0 0 0 0 0 0 0 0 0 0 0 0 0 0 0 0 0 0 0 0 0 -0 -0 -0 -0 -0 0 0 0 0 -0 0 0 0
-0 -0 -0 -0 0 0 0 0 -0 0 0 0 0 0 0 0 0 0 0 0 0 0 0 0 0 0 0 0 0 0 0 0 0 0 0 0 0 0 0 0 0 0 -0 -0 -0 -0 0 -0 0 0 -0 -0 0 0
-0 0 -0 0 0 0 0 0 0 0 0 0 0 0 0 0 0 0 0 0 0 0 0 0 0 0 0 0 0 0 0 0 0 0 0 0 0 0 0 0 0 0 0 0 -0 -0 0 -0 -0 0 0 0 0 -0
0 -0 -0 0 0 0 0 0 -0 0 0 0 0 0 0 0 0 0 0 0 0 0 0 0 0 0 0 0 0 0 0 0 0 0 0 0 0 0 0 0 0 0 0 0 0 -0 -0 -0 -0 -0 -0 0 0 0
-0 -0 0 0 0 -0 0 -0 0 0 0 0 0 0 0 0 0 0 0 0 0 0 0 0 0 0 0 0 0 0 0 0 0 0 0 0 0 0 0 0 0 0 0 0 0 0 -0 -0 -0 0 0 0 0 0
-0 0 -0 0 -0 0 0 0 0 0 0 0 0 0 0 0 0 0 0 0 0 0 0 0 0 0 -0 -0 0 0 0 0 0 0 0 0 0 0 0 0 0 0 0 0 0 0 0 -0 -0 -0 0 0 0 0
-0 -0 -0 -0 0 0 0 0 0 0 0 0 0 0 0 0 0 0 0 0 0 0 0 0 0 0 0 -0 0 0 0 0 0 0 0 0 0 0 0 0 0 0 0 0 0 0 0 0 -0 -0 -0 0 0 0
-0 -0 0 -0 0 0 0 0 0 0 0 0 0 0 0 0 0 0 0 0 0 0 0 0 0 0 0 0 0 0 0 0 0 0 0 0 0 0 0 0 0 0 0 0 0 0 0 0 0 -0 0 -0 0 0
-0 -0 -0 -0 -0 0 0 0 0 0 0 0 0 0 0 0 0 0 0 0 0 0 0 0 0 0 0 0 0 0 0 0 0 0 0 0 0 0 0 0 0 0 0 0 0 -0 0 0 0 0 0 0 0 0
-0 -0 -0 -0 -0 0 0 0 0 0 0 0 0 0 0 0 0 0 0 0 0 0 0 0 0 0 0 0 0 0 0 0 0 0 0 0 0 0 0 0 0 0 0 0 0 0 0 0 0 0 0 0 0 0
-0 -0 0 0 0 0 0 0 0 0 0 0 0 0 0 0 0 0 0 0 0 0 0 0 0 0 0 0 0 0 0 0 0 0 0 0 0 0 0 0 0 0 0 0 0 0 0 0 0 0 0 -0 0 0
-0 -0 -0 0 0 0 0 0 0 0 0 0 0 0 0 0 0 0 0 0 0 0 0 0 0 0 0 0 0 0 0 0 0 0 0 0 0 0 0 0 0 0 0 0 0 0 0 0 0 0 0 0 0 -0
-0 -0 0 -0 0 0 0 0 0 0 0 0 0 0 0 0 0 0 0 0 0 0 0 0 0 0 0 0 0 0 0 0 0 0 0 0 0 0 0 0 0 0 -0 -0 0 0 0 0 0 0 0 0 0 0
0 -0 -0 -0 -0 0 0 0 0 0 0 0 0 0 0 0 0 0 0 0 0 0 0 0 0 0 0 0 0 0 0 0 0 0 0 0 0 0 0 0 0 0 -0 -0 0 -0 -0 0 0 -0 -0 0 0 0
-0 -0 0 0 0 -0 0 0 0 0 0 0 0 0 0 0 0 0 0 0 0 0 0 0 0 0 0 0 0 0 0 0 0 0 0 0 0 0 0 0 0 0 0 -0 -0 -0 0 0 0 0 -0 -0 -0 -0
0 0 0 -0 -0 -0 0 0 0 0 0 0 0 0 0 0 0 0 0 0 0 0 0 0 0 0 0 0 0 0 0 0 0 0 0 0 0 0 0 0 0 0 0 -0 -0 -0 -0 -0 -0 -0 -0 -0 0 0
0 0 0 -0 -0 0 0 0 0 0 0 0 0 0 0 0 0 0 0 0 0 0 0 0 0 0 0 0 0 0 0 0 0 0 0 0 0 0 0 0 0 0 0 -0 0 -0 -0 -0 -0 -0 -0 -0 -0 -0
-0 0 -0 0 -0 0 0 0 0 0 0 0 0 0 0 0 0 0 0 0 0 0 0 0 0 0 0 0 0 0 0 0 0 0 0 0 0 0 0 0 0 0 0 0 -0 -0 -0 -0 -0 -0 -0 -0 -0 -0
-0 -0 -0 -0 0 0 0 0 0 0 0 0 0 0 0 0 0 0 0 0 0 0 0 0 0 0 0 0 0 0 0 0 0 0 0 0 0 0 0 0 0 0 0 0 0 0 0 0 0 0 -0 0 0 0
-0 -0 -0 -0 0 0 0 0 0 0 0 0 0 0 0 0 0 0 0 0 0 0 0 0 0 0 0 0 0 0 0 0 0 0 0 0 0 0 0 0 0 0 0 0 0 0 0 0 0 0 0 0 0 0
0 0 0 -0 0 0 0 0 0 0 0 0 0 0 0 0 0 0 0 0 0 0 0 0 0 0 0 0 0 0 0 0 0 0 0 0 0 0 0 0 0 0 0 0 0 0 0 0 0 0 0 0 0 0
0 -0 -0 0 0 0 0 0 0 0 0 0 0 0 0 0 0 0 0 0 0 0 0 0 0 0 0 0 0 0 0 0 0 0 0 0 0 0 0 0 0 0 0 0 0 0 0 0 0 0 0 0 0 0
Wind_Speed_500mb
28 35 43 46 44 36 36 41 40 30 29 22 18 15 15 19 14 14 13 8 9 6 8 6 4 8 3 4 4 15 10 8 9 8 5 7 5 6 6 4 4 9 14 15 20 16 31 13 1 5 7 26 28 32
25 33 41 42 39 32 35 38 31 23 25 18 17 12 14 18 13 8 4 4 6 3 3 3 4 3 2 1 5 4 9 6 6 4 3 5 5 7 11 4 5 5 6 8 10 11 10 16 22 24 21 29 36 38
24 32 38 39 34 29 33 34 24 18 18 17 17 17 19 16 9 5 3 6 6 3 5 2 6 3 4 1 4 3 4 5 5 7 8 4 3 5 9 6 9 3 3 8 9 3 16 31 24 20 25 32 34 34
24 31 35 35 29 25 30 29 20 15 11 14 13 16 14 9 5 5 2 5 3 6 9 8 4 4 9 4 2 5 11 10 11 6 7 4 3 5 6 8 4 6 17 11 11 21 31 14 15 26 34 31 32 29
22 30 33 29 25 20 24 24 16 12 11 6 7 8 9 7 5 3 2 1 4 1 10 5 5 7 7 6 4 2 4 5 11 4 3 4 7 5 12 8 3 11 8 7 6 25 22 21 27 30 34 33 27 27
22 28 30 26 24 18 18 20 15 10 9 7 4 3 2 2 7 4 2 7 11 4 7 4 4 12 15 8 1 1 5 4 5 6 2 3 4 6 6 5 24 20 21 35 15 32 25 28 31 27 32 31 27 23
20 26 26 23 23 19 14 15 13 10 9 10 9 8 8 6 6 6 4 7 16 7 5 9 5 7 16 17 7 2 8 7 6 1 2 4 3 4 5 6 26 30 25 35 45 43 16 24 24 31 28 22 13 14
19 24 22 22 22 21 16 13 13 13 11 12 13 14 14 13 13 6 8 14 11 4 5 5 5 7 13 8 7 12 14 9 7 6 1 11 2 7 3 27 30 21 13 33 41 41 37 35 32 34 31 23 6 16
18 22 21 21 23 22 19 14 13 15 14 15 16 16 16 5 6 12 16 9 4 7 3 4 4 7 8 5 5 6 7 5 4 4 1 6 6 3 12 26 32 27 17 23 30 39 45 43 41 41 43 42 33 27
16 21 22 22 23 22 16 12 13 16 15 16 13 4 6 8 13 13 1 1 3 6 8 9 5 4 8 12 8 8 7 4 5 5 3 2 5 10 15 21 24 26 21 24 31 42 45 47 50 44 49 49 45 46
16 21 23 24 23 17 11 12 14 15 13 5 4 5 13 12 4 2 5 7 6 6 11 11 14 12 6 6 5 10 4 5 4 3 3 2 6 16 16 20 22 21 21 23 22 28 34 38 43 52 51 56 53 48
18 24 26 26 23 15 9 12 16 13 7 9 11 15 7 4 6 9 6 7 10 5 12 10 6 11 6 7 7 12 5 6 4 9 4 4 4 12 15 18 21 17 21 21 21 22 24 29 34 35 45 58 58 47
20 26 30 30 22 14 9 11 17 15 16 10 2 4 5 5 4 6 4 6 6 5 7 11 10 7 7 9 7 6 7 4 11 3 3 5 8 9 14 17 20 16 16 21 22 22 27 27 27 34 35 37 41 51
21 27 32 21 10 11 13 13 23 17 7 5 7 7 9 6 10 10 16 16 23 21 24 22 7 8 8 8 4 5 4 5 2 3 4 9 11 14 16 15 17 14 16 21 23 21 26 31 34 34 32 31 31 29
23 27 20 7 7 10 19 24 26 13 5 7 8 7 10 14 25 16 14 5 14 19 20 23 8 12 7 5 2 4 4 1 5 4 7 14 8 13 15 15 16 11 14 21 24 21 22 28 30 32 29 27 27 28
27 23 5 15 26 26 23 19 13 9 6 7 10 11 19 16 29 25 14 8 1 5 17 4 9 8 3 6 6 3 4 5 3 6 8 4 5 11 16 12 12 6 10 16 22 19 17 20 25 27 27 28 25 26
28 15 17 15 14 10 9 6 4 7 7 7 10 13 20 22 23 21 12 10 11 12 10 15 3 2 12 7 5 2 7 10 10 5 5 8 9 9 13 12 12 5 5 11 17 18 15 15 18 23 25 25 26 25
27 18 15 11 10 8 6 8 6 7 11 13 11 17 14 11 15 13 11 8 4 3 6 7 5 7 4 9 6 9 6 4 6 4 7 13 8 8 13 12 7 5 5 7 13 13 15 13 14 20 23 20 18 21
23 21 13 5 6 6 3 5 6 8 10 11 9 9 8 7 10 9 12 21 17 16 17 7 5 3 2 12 15 13 7 8 11 3 7 5 6 11 9 7 7 3 4 8 10 12 14 12 11 15 16 14 17 17
15 9 7 13 13 3 5 6 8 9 9 6 6 8 7 10 10 11 8 9 5 4 5 3 6 9 5 13 7 4 10 7 8 9 2 5 10 7 8 6 8 6 7 5 4 6 13 8 9 13 14 11 15 15
11 13 11 5 3 11 6 6 8 7 8 6 6 6 7 10 12 9 7 6 8 8 8 5 8 7 8 4 4 2 6 6 11 13 11 11 9 6 5 7 10 12 13 11 11 8 10 7 7 9 10 13 14 17
18 9 5 3 4 5 7 7 8 10 5 6 4 6 7 6 4 7 5 8 10 13 11 9 9 10 8 8 3 1 2 2 3 2 4 5 7 7 8 10 15 14 12 8 10 10 9 6 6 9 12 11 12 14
11 4 3 5 5 5 3 5 4 4 5 7 2 2 5 4 6 4 5 7 7 7 7 5 5 7 7 9 9 5 6 5 10 6 4 2 3 3 6 19 10 12 8 9 8 7 4 3 0 4 1 7 10 9
6 4 5 5 7 4 3 3 2 3 3 5 5 3 4 7 6 2 5 7 4 5 6 4 7 14 11 4 14 14 7 8 8 3 0 2 2 8 16 10 9 14 13 9 11 10 7 4 8 6 2 3 7 11
4 6 6 6 6 5 4 1 1 1 3 4 4 2 3 2 2 3 4 7 1 3 6 9 13 11 17 19 15 11 11 8 12 5 2 3 5 11 10 10 11 11 9 9 7 6 5 2 6 15 7 8 11 12
2 7 9 5 5 4 1 3 1 2 2 2 3 2 2 2 1 4 5 8 4 6 9 11 17 19 13 12 12 11 12 11 9 10 11 6 10 11 11 11 11 13 10 11 11 7 9 15 16 10 12 12 10 9
3 8 8 6 2 2 4 3 4 5 4 3 4 4 3 2 2 4 3 2 3 5 9 10 10 10 10 9 11 12 12 12 12 12 9 9 11 11 11 11 10 10 11 10 11 12 11 11 10 10 9 8 8 9
8 7 7 12 8 8 4 4 5 5 4 5 5 6 3 2 2 4 2 2 0 4 8 9 11 12 11 11 10 9 10 13 15 16 16 14 13 13 13 12 10 15 11 8 11 9 10 10 5 10 9 8 8 7
8 9 11 11 9 8 9 7 5 4 6 8 3 3 5 6 10 9 9 10 7 8 7 6 8 10 11 11 10 7 4 7 8 9 7 10 11 11 12 13 13 12 11 11 11 13 13 15 15 12 9 8 7 6
8 16 8 7 7 6 4 7 3 5 7 7 5 4 6 8 12 16 15 17 13 9 7 8 7 5 4 5 7 11 13 12 10 10 10 10 10 11 13 14 13 10 10 10 10 10 16 11 11 10 9 8 8 8
7 14 8 9 6 2 5 6 5 5 7 8 9 10 8 10 11 19 21 19 17 14 13 11 8 5 4 6 10 10 13 13 17 18 17 15 13 13 12 12 13 11 11 10 8 7 7 8 7 8 9 11 12 11
12 15 9 6 5 4 6 8 7 9 9 10 11 12 10 11 12 15 28 29 23 18 17 15 11 7 8 11 12 16 20 17 15 14 14 14 14 14 13 12 11 11 11 9 8 6 5 5 7 8 9 10 10 10
12 11 11 7 7 7 11 11 8 6 8 8 8 14 16 12 8 14 22 33 24 21 20 18 17 12 14 17 18 19 19 17 18 18 20 23 23 21 13 9 9 9 8 7 6 6 7 7 7 9 12 13 14 14
Wind_Direction_500mb
328 334 344 344 345 349 352 352 355 3 11 23 55 64 119 129 118 109 105 107 87 78 54 24 8 23 331 181 313 340 266 50 332 350 318 351 303 327 263 356 231 176 184 201 228 249 249 14 9 209 328 311 316 320
324 334 342 343 345 348 354 354 359 11 20 38 65 60 122 142 126 102 85 104 93 141 42 13 351 341 134 275 212 315 351 18 342 288 13 305 307 324 314 30 324 252 330 263 247 239 15 349 289 281 276 289 299 310
319 332 340 342 345 347 356 357 3 14 31 47 66 78 112 129 119 80 342 343 0 334 233 286 61 91 68 58 191 316 320 350 277 322 321 258 317 320 336 12 314 323 293 248 314 316 319 323 301 257 278 294 290 296
313 330 339 341 343 348 357 358 6 17 29 44 75 89 100 108 90 59 10 359 7 310 297 115 138 90 71 89 181 250 286 297 292 285 272 319 335 327 305 301 252 311 311 289 263 289 326 298 266 312 302 292 281 284
308 328 337 340 342 346 357 359 3 20 25 32 54 80 90 76 24 327 319 358 10 312 319 10 196 194 95 92 99 26 339 321 310 292 326 27 335 336 290 280 10 343 303 326 296 306 302 293 312 312 308 296 281 274
308 329 336 339 338 340 350 356 352 360 2 358 331 323 321 357 358 11 256 293 334 326 277 253 184 193 196 220 312 341 357 327 287 334 94 214 250 269 325 303 0 350 17 359 323 327 315 320 321 319 312 298 281 260
316 328 334 338 334 335 330 343 337 328 340 325 313 296 287 312 328 256 288 258 316 307 254 269 185 197 207 213 229 223 193 329 311 357 36 270 258 223 291 329 7 7 15 1 8 1 327 339 336 340 333 310 270 154
321 326 332 335 333 331 316 309 329 319 310 306 301 299 294 289 295 299 268 300 300 260 258 281 282 209 198 213 200 183 178 253 233 271 211 0 69 356 284 348 352 9 4 19 12 10 2 2 5 7 17 20 25 114
323 324 329 331 331 327 311 295 308 315 310 304 298 300 295 248 237 252 290 290 253 194 274 246 276 350 177 202 171 129 149 227 211 253 130 327 2 288 318 341 345 354 5 1 7 15 15 14 15 17 17 30 30 51
322 319 323 325 330 326 312 303 305 311 312 308 302 253 243 237 281 293 234 244 220 218 220 237 249 286 210 172 166 148 189 215 214 133 263 109 272 356 358 353 346 350 353 1 9 11 15 19 17 19 25 28 33 34
314 314 317 321 328 320 315 318 308 314 310 287 234 252 249 294 287 260 242 222 163 240 210 227 225 294 252 251 153 205 166 208 203 100 287 255 313 27 356 358 357 352 0 358 4 13 16 17 19 24 29 33 33 37
309 314 315 316 315 298 295 327 312 307 272 249 260 276 278 247 223 244 217 167 205 264 185 229 262 221 222 218 240 177 210 202 181 167 220 305 25 9 358 352 350 351 359 357 355 359 11 16 21 19 20 27 32 38
311 317 318 314 300 269 253 329 331 315 302 300 229 236 234 180 296 236 302 289 298 248 211 239 243 182 184 206 238 219 233 142 140 155 182 249 30 6 352 348 347 346 355 359 358 353 356 5 15 17 18 20 20 26
321 328 328 334 315 233 236 304 333 312 291 241 230 273 231 204 229 237 297 335 339 316 336 310 269 185 172 194 253 272 47 209 253 49 256 30 40 354 344 345 346 353 1 4 6 2 3 3 6 12 17 21 24 25
333 332 320 343 2 273 270 291 303 281 231 252 230 247 227 280 306 321 336 307 348 320 340 298 237 185 136 190 353 13 238 232 214 261 359 42 21 354 350 342 346 353 10 13 12 14 13 12 13 18 24 29 34 38
342 336 283 305 307 294 285 280 277 217 242 240 239 264 279 299 318 323 329 341 5 339 317 327 348 18 26 38 241 243 307 235 339 360 16 23 23 354 343 335 338 336 1 14 14 12 17 21 18 17 21 29 33 35
347 337 320 317 309 297 276 237 216 225 243 237 253 275 307 314 344 351 349 341 7 2 27 68 74 180 279 242 197 328 10 347 8 34 6 354 313 336 343 341 335 259 3 20 18 17 12 10 14 16 14 16 26 35
346 339 328 328 318 317 280 205 232 243 248 254 291 356 344 346 348 11 5 18 69 53 94 152 163 227 293 349 26 51 1 7 360 359 336 343 334 351 343 335 342 129 72 35 11 9 18 12 11 11 9 12 26 32
331 331 317 273 311 325 248 238 217 266 256 321 324 347 14 55 39 65 75 63 72 94 103 143 288 77 224 342 4 32 355 353 358 9 343 49 13 343 347 9 117 61 346 348 358 7 19 27 26 13 17 20 39 32
329 334 308 285 265 250 254 229 227 261 293 3 360 14 37 52 45 48 71 79 97 108 106 56 345 332 324 3 30 7 17 13 330 341 34 70 7 28 51 40 25 344 298 335 278 10 7 39 54 28 33 50 65 52
328 325 303 283 224 215 258 257 249 278 315 326 355 360 108 87 61 56 57 50 40 32 27 8 4 29 342 332 349 356 31 10 7 354 355 12 16 6 3 344 327 335 332 335 343 16 23 44 48 35 67 70 70 78
329 308 275 225 206 244 257 244 270 295 298 338 354 19 72 62 43 49 18 37 45 25 31 45 53 43 51 33 9 107 37 62 349 357 358 344 319 335 336 339 333 338 318 304 322 354 26 72 52 47 72 86 72 70
325 266 247 220 233 238 248 291 277 352 321 5 356 83 65 18 33 54 73 51 52 43 57 55 32 29 5 346 339 286 254 304 311 302 300 326 72 51 353 342 337 330 9 346 326 324 310 211 299 20 51 36 66 44
288 219 223 220 223 260 252 251 330 345 5 346 15 35 44 20 8 50 57 60 117 67 68 32 0 350 351 322 356 358 323 305 317 341 74 167 51 18 354 346 5 353 325 335 18 21 38 91 136 106 81 49 43 68
265 203 210 220 220 235 221 243 312 323 13 2 360 73 66 325 359 70 38 50 33 316 348 344 339 334 335 344 1 2 11 354 335 355 56 98 37 0 24 18 50 19 15 24 2 360 351 247 151 118 112 89 72 78
248 192 193 184 151 244 37 272 269 324 311 260 76 98 219 307 328 44 47 12 9 345 339 338 340 344 11 16 6 14 22 37 51 87 109 43 18 32 33 30 50 40 32 33 35 42 69 77 123 108 105 81 91 78
247 189 188 205 207 215 228 251 264 256 249 230 155 181 214 305 13 73 84 9 314 321 358 20 34 33 39 43 50 54 53 62 89 115 103 84 75 52 49 56 65 65 51 44 44 57 71 94 94 92 98 75 59 60
241 221 212 169 201 226 253 238 229 229 206 184 180 213 225 153 113 141 150 199 159 51 62 65 80 78 76 69 63 54 69 88 99 106 102 89 77 64 67 66 78 92 73 61 58 60 60 48 110 107 90 63 54 38
218 200 190 208 211 219 225 230 250 204 195 190 244 218 184 161 162 160 161 158 137 125 107 94 102 86 73 60 43 50 119 155 146 146 123 114 91 67 81 81 82 88 76 56 64 87 81 85 77 74 58 40 28 22
206 185 211 208 224 227 179 206 263 216 195 203 184 155 162 164 179 188 183 167 155 150 147 148 130 106 75 65 70 78 83 94 117 135 139 121 113 110 103 94 88 84 77 84 94 75 60 58 49 59 49 32 14 352
175 189 225 231 250 213 218 205 200 201 200 212 221 241 218 191 195 199 184 178 172 158 149 148 140 112 87 117 128 119 112 107 113 117 120 116 116 120 116 101 90 90 98 94 92 79 60 57 45 19 1 353 347 350
200 211 222 232 199 225 175 208 220 221 218 221 235 214 206 203 220 214 203 186 177 174 173 163 159 153 131 132 137 144 150 135 125 118 114 123 124 119 113 103 97 105 102 97 92 77 56 40 21 20 25 13 7 6
211 220 234 248 198 199 198 195 214 232 229 233 243 223 222 229 249 202 200 186 183 187 172 164 161 154 142 136 141 142 138 151 154 144 142 144 146 133 116 119 119 111 97 91 83 70 61 60 55 54 50 53 46 40
Wind_Speed_850mb
28 35 43 46 44 36 36 41 40 30 29 22 18 15 15 19 14 14 13 8 9 6 8 6 4 8 3 4 4 15 10 8 9 8 5 7 5 6 6 4 4 9 14 15 20 16 31 13 1 5 7 26 28 32
25 33 41 42 39 32 35 38 31 23 25 18 17 12 14 18 13 8 4 4 6 3 3 3 4 3 2 1 5 4 9 6 6 4 3 5 5 7 11 4 5 5 6 8 10 11 10 16 22 24 21 29 36 38
24 32 38 39 34 29 33 34 24 18 18 17 17 17 19 16 9 5 3 6 6 3 5 2 6 3 4 1 4 3 4 5 5 7 8 4 3 5 9 6 9 3 3 8 9 3 16 31 24 20 25 32 34 34
24 31 35 35 29 25 30 29 20 15 11 14 13 16 14 9 5 5 2 5 3 6 9 8 4 4 9 4 2 5 11 10 11 6 7 4 3 5 6 8 4 6 17 11 11 21 31 14 15 26 34 31 32 29
22 30 33 29 25 20 24 24 16 12 11 6 7 8 9 7 5 3 2 1 4 1 10 5 5 7 7 6 4 2 4 5 11 4 3 4 7 5 12 8 3 11 8 7 6 25 22 21 27 30 34 33 27 27
22 28 30 26 24 18 18 20 15 10 9 7 4 3 2 2 7 4 2 7 11 4 7 4 4 12 15 8 1 1 5 4 5 6 2 3 4 6 6 5 24 20 21 35 15 32 25 28 31 27 32 31 27 23
20 26 26 23 23 19 14 15 13 10 9 10 9 8 8 6 6 6 4 7 16 7 5 9 5 7 16 17 7 2 8 7 6 1 2 4 3 4 5 6 26 30 25 35 45 43 16 24 24 31 28 22 13 14
19 24 22 22 22 21 16 13 13 13 11 12 13 14 14 13 13 6 8 14 11 4 5 5 5 7 13 8 7 12 14 9 7 6 1 11 2 7 3 27 30 21 13 33 41 41 37 35 32 34 31 23 6 16
18 22 21 21 23 22 19 14 13 15 14 15 16 16 16 5 6 12 16 9 4 7 3 4 4 7 8 5 5 6 7 5 4 4 1 6 6 3 12 26 32 27 17 23 30 39 45 43 41 41 43 42 33 27
16 21 22 22 23 22 16 12 13 16 15 16 13 4 6 8 13 13 1 1 3 6 8 9 5 4 8 12 8 8 7 4 5 5 3 2 5 10 15 21 24 26 21 24 31 42 45 47 50 44 49 49 45 46
16 21 23 24 23 17 11 12 14 15 13 5 4 5 13 12 4 2 5 7 6 6 11 11 14 12 6 6 5 10 4 5 4 3 3 2 6 16 16 20 22 21 21 23 22 28 34 38 43 52 51 56 53 48
18 24 26 26 23 15 9 12 16 13 7 9 11 15 7 4 6 9 6 7 10 5 12 10 6 11 6 7 7 12 5 6 4 9 4 4 4 12 15 18 21 17 21 21 21 22 24 29 34 35 45 58 58 47
20 26 30 30 22 14 9 11 17 15 16 10 2 4 5 5 4 6 4 6 6 5 7 11 10 7 7 9 7 6 7 4 11 3 3 5 8 9 14 17 20 16 16 21 22 22 27 27 27 34 35 37 41 51
21 27 32 21 10 11 13 13 23 17 7 5 7 7 9 6 10 10 16 16 23 21 24 22 7 8 8 8 4 5 4 5 2 3 4 9 11 14 16 15 17 14 16 21 23 21 26 31 34 34 32 31 31 29
23 27 20 7 7 10 19 24 26 13 5 7 8 7 10 14 25 16 14 5 14 19 20 23 8 12 7 5 2 4 4 1 5 4 7 14 8 13 15 15 16 11 14 21 24 21 22 28 30 32 29 27 27 28
27 23 5 15 26 26 23 19 13 9 6 7 10 11 19 16 29 25 14 8 1 5 17 4 9 8 3 6 6 3 4 5 3 6 8 4 5 11 16 12 12 6 10 16 22 19 17 20 25 27 27 28 25 26
28 15 17 15 14 10 9 6 4 7 7 7 10 13 20 22 23 21 12 10 11 12 10 15 3 2 12 7 5 2 7 10 10 5 5 8 9 9 13 12 12 5 5 11 17 18 15 15 18 23 25 25 26 25
27 18 15 11 10 8 6 8 6 7 11 13 11 17 14 11 15 13 11 8 4 3 6 7 5 7 4 9 6 9 6 4 6 4 7 13 8 8 13 12 7 5 5 7 13 13 15 13 14 20 23 20 18 21
23 21 13 5 6 6 3 5 6 8 10 11 9 9 8 7 10 9 12 21 17 16 17 7 5 3 2 12 15 13 7 8 11 3 7 5 6 11 9 7 7 3 4 8 10 12 14 12 11 15 16 14 17 17
15 9 7 13 13 3 5 6 8 9 9 6 6 8 7 10 10 11 8 9 5 4 5 3 6 9 5 13 7 4 10 7 8 9 2 5 10 7 8 6 8 6 7 5 4 6 13 8 9 13 14 11 15 15
11 13 11 5 3 11 6 6 8 7 8 6 6 6 7 10 12 9 7 6 8 8 8 5 8 7 8 4 4 2 6 6 11 13 11 11 9 6 5 7 10 12 13 11 11 8 10 7 7 9 10 13 14 17
18 9 5 3 4 5 7 7 8 10 5 6 4 6 7 6 4 7 5 8 10 13 11 9 9 10 8 8 3 1 2 2 3 2 4 5 7 7 8 10 15 14 12 8 10 10 9 6 6 9 12 11 12 14
11 4 3 5 5 5 3 5 4 4 5 7 2 2 5 4 6 4 5 7 7 7 7 5 5 7 7 9 9 5 6 5 10 6 4 2 3 3 6 19 10 12 8 9 8 7 4 3 0 4 1 7 10 9
6 4 5 5 7 4 3 3 2 3 3 5 5 3 4 7 6 2 5 7 4 5 6 4 7 14 11 4 14 14 7 8 8 3 0 2 2 8 16 10 9 14 13 9 11 10 7 4 8 6 2 3 7 11
4 6 6 6 6 5 4 1 1 1 3 4 4 2 3 2 2 3 4 7 1 3 6 9 13 11 17 19 15 11 11 8 12 5 2 3 5 11 10 10 11 11 9 9 7 6 5 2 6 15 7 8 11 12
2 7 9 5 5 4 1 3 1 2 2 2 3 2 2 2 1 4 5 8 4 6 9 11 17 19 13 12 12 11 12 11 9 10 11 6 10 11 11 11 11 13 10 11 11 7 9 15 16 10 12 12 10 9
3 8 8 6 2 2 4 3 4 5 4 3 4 4 3 2 2 4 3 2 3 5 9 10 10 10 10 9 11 12 12 12 12 12 9 9 11 11 11 11 10 10 11 10 11 12 11 11 10 10 9 8 8 9
8 7 7 12 8 8 4 4 5 5 4 5 5 6 3 2 2 4 2 2 0 4 8 9 11 12 11 11 10 9 10 13 15 16 16 14 13 13 13 12 10 15 11 8 11 9 10 10 5 10 9 8 8 7
8 9 11 11 9 8 9 7 5 4 6 8 3 3 5 6 10 9 9 10 7 8 7 6 8 10 11 11 10 7 4 7 8 9 7 10 11 11 12 13 13 12 11 11 11 13 13 15 15 12 9 8 7 6
8 16 8 7 7 6 4 7 3 5 7 7 5 4 6 8 12 16 15 17 13 9 7 8 7 5 4 5 7 11 13 12 10 10 10 10 10 11 13 14 13 10 10 10 10 10 16 11 11 10 9 8 8 8
7 14 8 9 6 2 5 6 5 5 7 8 9 10 8 10 11 19 21 19 17 14 13 11 8 5 4 6 10 10 13 13 17 18 17 15 13 13 12 12 13 11 11 10 8 7 7 8 7 8 9 11 12 11
12 15 9 6 5 4 6 8 7 9 9 10 11 12 10 11 12 15 28 29 23 18 17 15 11 7 8 11 12 16 20 17 15 14 14 14 14 14 13 12 11 11 11 9 8 6 5 5 7 8 9 10 10 10
12 11 11 7 7 7 11 11 8 6 8 8 8 14 16 12 8 14 22 33 24 21 20 18 17 12 14 17 18 19 19 17 18 18 20 23 23 21 13 9 9 9 8 7 6 6 7 7 7 9 12 13 14 14
Wind_Direction_850mb
328 334 344 344 345 349 352 352 355 3 11 23 55 64 119 129 118 109 105 107 87 78 54 24 8 23 331 181 313 340 266 50 332 350 318 351 303 327 263 356 231 176 184 201 228 249 249 14 9 209 328 311 316 320
324 334 342 343 345 348 354 354 359 11 20 38 65 60 122 142 126 102 85 104 93 141 42 13 351 341 134 275 212 315 351 18 342 288 13 305 307 324 314 30 324 252 330 263 247 239 15 349 289 281 276 289 299 310
319 332 340 342 345 347 356 357 3 14 31 47 66 78 112 129 119 80 342 343 0 334 233 286 61 91 68 58 191 316 320 350 277 322 321 258 317 320 336 12 314 323 293 248 314 316 319 323 301 257 278 294 290 296
313 330 339 341 343 348 357 358 6 17 29 44 75 89 100 108 90 59 10 359 7 310 297 115 138 90 71 89 181 250 286 297 292 285 272 319 335 327 305 301 252 311 311 289 263 289 326 298 266 312 302 292 281 284
308 328 337 340 342 346 357 359 3 20 25 32 54 80 90 76 24 327 319 358 10 312 319 10 196 194 95 92 99 26 339 321 310 292 326 27 335 336 290 280 10 343 303 326 296 306 302 293 312 312 308 296 281 274
308 329 336 339 338 340 350 356 352 360 2 358 331 323 321 357 358 11 256 293 334 326 277 253 184 193 196 220 312 341 357 327 287 334 94 214 250 269 325 303 0 350 17 359 323 327 315 320 321 319 312 298 281 260
316 328 334 338 334 335 330 343 337 328 340 325 313 296 287 312 328 256 288 258 316 307 254 269 185 197 207 213 229 223 193 329 311 357 36 270 258 223 291 329 7 7 15 1 8 1 327 339 336 340 333 310 270 154
321 326 332 335 333 331 316 309 329 319 310 306 301 299 294 289 295 299 268 300 300 260 258 281 282 209 198 213 200 183 178 253 233 271 211 0 69 356 284 348 352 9 4 19 12 10 2 2 5 7 17 20 25 114
323 324 329 331 331 327 311 295 308 315 310 304 298 300 295 248 237 252 290 290 253 194 274 246 276 350 177 202 171 129 149 227 211 253 130 327 2 288 318 341 345 354 5 1 7 15 15 14 15 17 17 30 30 51
322 319 323 325 330 326 312 303 305 311 312 308 302 253 243 237 281 293 234 244 220 218 220 237 249 286 210 172 166 148 189 215 214 133 263 109 272 356 358 353 346 350 353 1 9 11 15 19 17 19 25 28 33 34
314 314 317 321 328 320 315 318 308 314 310 287 234 252 249 294 287 260 242 222 163 240 210 227 225 294 252 251 153 205 166 208 203 100 287 255 313 27 356 358 357 352 0 358 4 13 16 17 19 24 29 33 33 37
309 314 315 316 315 298 295 327 312 307 272 249 260 276 278 247 223 244 217 167 205 264 185 229 262 221 222 218 240 177 210 202 181 167 220 305 25 9 358 352 350 351 359 357 355 359 11 16 21 19 20 27 32 38
311 317 318 314 300 269 253 329 331 315 302 300 229 236 234 180 296 236 302 289 298 248 211 239 243 182 184 206 238 219 233 142 140 155 182 249 30 6 352 348 347 346 355 359 358 353 356 5 15 17 18 20 20 26
321 328 328 334 315 233 236 304 333 312 291 241 230 273 231 204 229 237 297 335 339 316 336 310 269 185 172 194 253 272 47 209 253 49 256 30 40 354 344 345 346 353 1 4 6 2 3 3 6 12 17 21 24 25
333 332 320 343 2 273 270 291 303 281 231 252 230 247 227 280 306 321 336 307 348 320 340 298 237 185 136 190 353 13 238 232 214 261 359 42 21 354 350 342 346 353 10 13 12 14 13 12 13 18 24 29 34 38
342 336 283 305 307 294 285 280 277 217 242 240 239 264 279 299 318 323 329 341 5 339 317 327 348 18 26 38 241 243 307 235 339 360 16 23 23 354 343 335 338 336 1 14 14 12 17 21 18 17 21 29 33 35
347 337 320 317 309 297 276 237 216 225 243 237 253 275 307 314 344 351 349 341 7 2 27 68 74 180 279 242 197 328 10 347 8 34 6 354 313 336 343 341 335 259 3 20 18 17 12 10 14 16 14 16 26 35
346 339 328 328 318 317 280 205 232 243 248 254 291 356 344 346 348 11 5 18 69 53 94 152 163 227 293 349 26 51 1 7 360 359 336 343 334 351 343 335 342 129 72 35 11 9 18 12 11 11 9 12 26 32
331 331 317 273 311 325 248 238 217 266 256 321 324 347 14 55 39 65 75 63 72 94 103 143 288 77 224 342 4 32 355 353 358 9 343 49 13 343 347 9 117 61 346 348 358 7 19 27 26 13 17 20 39 32
329 334 308 285 265 250 254 229 227 261 293 3 360 14 37 52 45 48 71 79 97 108 106 56 345 332 324 3 30 7 17 13 330 341 34 70 7 28 51 40 25 344 298 335 278 10 7 39 54 28 33 50 65 52
328 325 303 283 224 215 258 257 249 278 315 326 355 360 108 87 61 56 57 50 40 32 27 8 4 29 342 332 349 356 31 10 7 354 355 12 16 6 3 344 327 335 332 335 343 16 23 44 48 35 67 70 70 78
329 308 275 225 206 244 257 244 270 295 298 338 354 19 72 62 43 49 18 37 45 25 31 45 53 43 51 33 9 107 37 62 349 357 358 344 319 335 336 339 333 338 318 304 322 354 26 72 52 47 72 86 72 70
325 266 247 220 233 238 248 291 277 352 321 5 356 83 65 18 33 54 73 51 52 43 57 55 32 29 5 346 339 286 254 304 311 302 300 326 72 51 353 342 337 330 9 346 326 324 310 211 299 20 51 36 66 44
288 219 223 220 223 260 252 251 330 345 5 346 15 35 44 20 8 50 57 60 117 67 68 32 0 350 351 322 356 358 323 305 317 341 74 167 51 18 354 346 5 353 325 335 18 21 38 91 136 106 81 49 43 68
265 203 210 220 220 235 221 243 312 323 13 2 360 73 66 325 359 70 38 50 33 316 348 344 339 334 335 344 1 2 11 354 335 355 56 98 37 0 24 18 50 19 15 24 2 360 351 247 151 118 112 89 72 78
248 192 193 184 151 244 37 272 269 324 311 260 76 98 219 307 328 44 47 12 9 345 339 338 340 344 11 16 6 14 22 37 51 87 109 43 18 32 33 30 50 40 32 33 35 42 69 77 123 108 105 81 91 78
247 189 188 205 207 215 228 251 264 256 249 230 155 181 214 305 13 73 84 9 314 321 358 20 34 33 39 43 50 54 53 62 89 115 103 84 75 52 49 56 65 65 51 44 44 57 71 94 94 92 98 75 59 60
241 221 212 169 201 226 253 238 229 229 206 184 180 213 225 153 113 141 150 199 159 51 62 65 80 78 76 69 63 54 69 88 99 106 102 89 77 64 67 66 78 92 73 61 58 60 60 48 110 107 90 63 54 38
218 200 190 208 211 219 225 230 250 204 195 190 244 218 184 161 162 160 161 158 137 125 107 94 102 86 73 60 43 50 119 155 146 146 123 114 91 67 81 81 82 88 76 56 64 87 81 85 77 74 58 40 28 22
206 185 211 208 224 227 179 206 263 216 195 203 184 155 162 164 179 188 183 167 155 150 147 148 130 106 75 65 70 78 83 94 117 135 139 121 113 110 103 94 88 84 77 84 94 75 60 58 49 59 49 32 14 352
175 189 225 231 250 213 218 205 200 201 200 212 221 241 218 191 195 199 184 178 172 158 149 148 140 112 87 117 128 119 112 107 113 117 120 116 116 120 116 101 90 90 98 94 92 79 60 57 45 19 1 353 347 350
200 211 222 232 199 225 175 208 220 221 218 221 235 214 206 203 220 214 203 186 177 174 173 163 159 153 131 132 137 144 150 135 125 118 114 123 124 119 113 103 97 105 102 97 92 77 56 40 21 20 25 13 7 6
211 220 234 248 198 199 198 195 214 232 229 233 243 223 222 229 249 202 200 186 183 187 172 164 161 154 142 136 141 142 138 151 154 144 142 144 146 133 116 119 119 111 97 91 83 70 61 60 55 54 50 53 46 40